Tracking 25734 objects as of 27-May-2022
HD Live streaming from Space Station
objects crossing your sky now

SL-16 DEB

Track SL-16 DEB now!
10-day predictions


NORAD ID: 39877
Int'l Code: 1993-016BB
Perigee: 736.1 km
Apogee: 933.1 km
Inclination: 71.0 °
Period: 101.5 minutes
Semi major axis: 7205 km
RCS: 0.006 m2 (small)
Launch date: March 26, 1993
Source: Commonwealth of Independent States (former USSR) (CIS)
Launch site: TYURATAM MISSILE AND SPACE COMPLEX (TTMTR)

Note: This is SATELLITE DEBRIS
aabbcc
Your satellite tracking list
Your tracking list is empty




NASA's NSSDC Master Catalog

Two Line Element Set (TLE):
1 39877U 93016BB  22146.11095669  .00004555  00000-0  19933-2 0  9991
2 39877  70.9849 310.3152 0136675 353.3812   6.5501 14.19367916414026
Source of the keplerian elements: AFSPC